Date String (YYYY-MM-DD hh:mm:ss) UTC,Instrument flags,Ambient pressure (hPa),Sample flow (lpm),Bypass flow (lpm),Sample temperature (°C),Ambient temperature (°C),ASC tube jacket temperature (°C),LED temperature (°C),Box temperature (°C),Sample RH (%),Span deviation,Mass concentration (μg/m³),Mass concentration (μg/m³),Mass concentration (μg/m³)
DateTimeUTC,F1_M11,P_M11,Q1_M11,Q2_M11,T1_M11,T2_M11,T3_M11,T4_M11,T5_M11,U1_M11,ZSPAN_M11,X0_M11,X2_M11,X1_M11
2022-10-07 16:00:00,,0838.5,5.01,0.00,26.3,24.9,00.0,35.1,28.3,21.9,0000.4,0017.11,0009.32,0007.81
2022-10-07 16:01:00,,0838.5,5.02,0.00,26.3,24.9,00.0,35.1,28.3,21.9,0000.1,0016.03,0009.31,0007.80
2022-10-07 16:02:00,,0838.5,5.00,0.00,26.3,24.9,00.0,35.1,28.3,21.7,-000.5,0016.07,0009.36,0007.80
2022-10-07 16:03:00,,0838.5,4.99,0.00,26.3,24.9,00.0,35.1,28.3,21.7,-000.3,0016.07,0009.36,0007.79
2022-10-07 16:04:00,,0838.5,5.00,0.00,26.3,24.9,00.0,35.1,28.3,21.6,0000.0,0016.12,0009.40,0007.80
2022-10-07 16:05:00,,0838.5,5.00,0.00,26.3,24.9,00.0,35.1,28.3,21.5,-000.4,0016.19,0009.44,0007.83
2022-10-07 16:06:00,,0838.5,4.99,0.00,26.3,24.9,00.0,35.1,28.3,21.4,-000.5,0016.65,0009.47,0007.83
2022-10-07 16:07:00,,0838.5,5.00,0.00,26.4,24.9,00.0,35.1,28.3,21.3,-001.4,0016.86,0009.46,0007.82
2022-10-07 16:08:00,,0838.5,5.00,0.00,26.4,24.9,00.0,35.1,28.3,21.3,-001.4,0016.86,0009.43,0007.81
2022-10-07 16:09:00,,0838.6,5.00,0.00,26.4,24.9,00.0,35.1,28.3,21.2,-001.8,0017.12,0009.48,0007.82
2022-10-07 16:10:00,,0838.5,5.02,0.00,26.4,24.9,00.0,35.1,28.3,21.2,-001.9,0017.56,0009.50,0007.83
2022-10-07 16:11:00,,0838.5,5.00,0.00,26.4,24.9,00.0,35.1,28.3,21.1,-001.4,0017.56,0009.49,0007.82
2022-10-07 16:12:00,,0838.5,4.99,0.00,26.4,24.9,00.0,35.1,28.3,21.1,-001.1,0017.44,0009.54,0007.83
2022-10-07 16:13:00,,0838.5,5.00,0.00,26.4,24.9,00.0,35.1,28.3,21.0,-001.0,0017.21,0009.52,0007.81
2022-10-07 16:14:00,,0838.5,4.99,0.00,26.4,24.9,00.0,35.1,28.3,21.0,-001.1,0017.30,0009.55,0007.79
2022-10-07 16:15:00,,0838.6,5.00,0.00,26.4,24.9,00.0,35.1,28.3,21.0,-001.1,0017.99,0009.53,0007.79
2022-10-07 16:16:00,,0838.5,5.01,0.00,26.4,24.9,00.0,35.1,28.3,21.1,-001.0,0018.33,0009.55,0007.80
2022-10-07 16:17:00,,0838.5,5.01,0.00,26.4,24.9,00.0,35.1,28.3,21.1,-001.3,0018.37,0009.57,0007.78
2022-10-07 16:18:00,,0838.5,5.00,0.00,26.4,24.9,00.0,35.1,28.2,21.0,-001.1,0018.76,0009.63,0007.83
2022-10-07 16:19:00,,0838.5,5.00,0.00,26.3,24.9,00.0,35.1,28.2,21.1,-001.3,0019.02,0009.73,0007.89
2022-10-07 16:20:00,,0838.5,5.00,0.00,26.4,24.9,00.0,35.1,28.2,21.1,-001.4,0019.02,0009.79,0007.93
2022-10-07 16:21:00,,0838.5,5.00,0.00,26.3,24.9,00.0,35.1,28.2,21.0,-000.9,0018.64,0009.79,0007.94
2022-10-07 16:22:00,,0838.5,5.00,0.00,26.3,24.9,00.0,35.1,28.2,21.0,-000.7,0018.37,0009.81,0007.94
2022-10-07 16:23:00,,0838.5,4.99,0.00,26.3,24.9,00.0,35.1,28.2,21.0,-001.2,0018.76,0009.78,0007.93
2022-10-07 16:24:00,,0838.4,5.00,0.00,26.3,24.9,00.0,35.1,28.2,21.0,-001.5,0018.95,0009.72,0007.89
2022-10-07 16:25:00,,0838.4,5.00,0.00,26.3,24.9,00.0,35.1,28.2,21.1,-001.3,0019.41,0009.75,0007.90
2022-10-07 16:26:00,,0838.3,5.00,0.00,26.3,24.9,00.0,35.1,28.2,21.1,-001.3,0019.55,0009.85,0007.96
2022-10-07 16:27:00,,0838.4,5.01,0.00,26.3,24.9,00.0,35.1,28.2,21.2,-001.2,0020.02,0009.95,0008.03
2022-10-07 16:28:00,,0838.4,5.00,0.00,26.3,24.9,00.0,35.1,28.2,21.1,-000.7,0020.07,0010.09,0008.10
2022-10-07 16:29:00,,0838.3,5.01,0.00,26.3,24.9,00.0,35.1,28.2,21.1,-000.3,0019.77,0010.15,0008.13
2022-10-07 16:30:00,,0838.4,5.00,0.00,26.3,24.9,00.0,35.1,28.2,21.1,0000.5,0020.57,0010.23,0008.14
2022-10-07 16:31:00,,0838.3,4.99,0.00,26.3,24.9,00.0,35.1,28.2,21.1,0000.9,0021.04,0010.32,0008.17
2022-10-07 16:32:00,,0838.4,5.00,0.00,26.3,24.9,00.0,35.1,28.2,21.1,0000.6,0021.58,0010.38,0008.22
2022-10-07 16:33:00,,0838.4,5.00,0.00,26.3,24.9,00.0,35.1,28.2,21.2,0000.0,0021.72,0010.47,0008.29
2022-10-07 16:34:00,,0838.4,5.00,0.00,26.3,24.8,00.0,35.1,28.2,21.2,-000.3,0021.55,0010.51,0008.31
2022-10-07 16:35:00,,0838.3,5.02,0.00,26.3,24.8,00.0,35.1,28.2,21.1,0000.3,0021.56,0010.56,0008.33
2022-10-07 16:36:00,,0838.4,5.00,0.00,26.3,24.8,00.0,35.1,28.2,21.1,-000.3,0021.29,0010.52,0008.31
2022-10-07 16:37:00,,0838.3,5.00,0.00,26.3,24.8,00.0,35.1,28.2,21.1,-000.3,0020.39,0010.35,0008.25
2022-10-07 16:38:00,,0838.3,4.99,0.00,26.3,24.8,00.0,35.1,28.2,21.2,-000.3,0019.92,0010.22,0008.15
2022-10-07 16:39:00,,0838.3,5.00,0.00,26.3,24.8,00.0,35.1,28.2,21.3,-000.8,0019.48,0009.99,0008.04
2022-10-07 16:40:00,,0838.3,5.00,0.00,26.3,24.8,00.0,35.1,28.2,21.3,-001.4,0019.23,0009.79,0007.93
2022-10-07 16:41:00,,0838.3,5.00,0.00,26.3,24.8,00.0,35.1,28.2,21.4,-001.8,0018.12,0009.55,0007.82
2022-10-07 16:42:00,,0838.3,5.00,0.00,26.3,24.8,00.0,35.1,28.2,21.4,-002.1,0017.32,0009.24,0007.66
2022-10-07 16:43:00,,0838.3,4.99,0.00,26.3,24.8,00.0,35.1,28.2,21.4,-002.4,0016.90,0009.02,0007.51
2022-10-07 16:44:00,,0838.3,5.00,0.00,26.3,24.9,00.0,35.1,28.2,21.5,-002.3,0016.75,0008.78,0007.35
2022-10-07 16:45:00,,0838.3,4.99,0.00,26.3,24.9,00.0,35.1,28.2,21.6,-002.1,0016.25,0008.58,0007.23
2022-10-07 16:46:00,,0838.3,5.00,0.00,26.3,24.9,00.0,35.1,28.2,21.4,-002.2,0015.74,0008.40,0007.13
2022-10-07 16:47:00,,0838.3,5.00,0.00,26.3,24.9,00.0,35.1,28.2,21.4,-001.9,0015.67,0008.22,0007.02
2022-10-07 16:48:00,,0838.3,5.00,0.00,26.3,24.9,00.0,35.1,28.2,21.5,-001.8,0015.60,0008.16,0006.94
2022-10-07 16:49:00,,0838.3,4.99,0.00,26.3,24.9,00.0,35.1,28.2,21.5,-002.1,0015.57,0008.11,0006.91
2022-10-07 16:50:00,,0838.3,5.00,0.00,26.3,24.9,00.0,35.1,28.2,21.5,-002.2,0015.65,0008.08,0006.86
2022-10-07 16:51:00,,0838.3,5.00,0.00,26.3,24.9,00.0,35.1,28.2,21.5,-001.9,0015.55,0008.01,0006.80
2022-10-07 16:52:00,,0838.3,5.01,0.00,26.3,24.9,00.0,35.1,28.2,21.5,-001.8,0016.40,0008.11,0006.82
2022-10-07 16:53:00,,0838.3,5.00,0.00,26.3,24.9,00.0,35.1,28.2,21.5,-001.7,0017.23,0008.32,0006.92
2022-10-07 16:54:00,,0838.2,4.99,0.00,26.3,24.9,00.0,35.1,28.2,21.4,-001.4,0017.36,0008.39,0006.95
2022-10-07 16:55:00,,0838.3,5.00,0.00,26.3,24.9,00.0,35.1,28.2,21.6,-001.3,0017.86,0008.53,0006.99
2022-10-07 16:56:00,,0838.3,5.00,0.00,26.3,24.9,00.0,35.1,28.2,21.4,-001.1,0018.60,0008.60,0007.02
2022-10-07 16:57:00,,0838.3,5.00,0.00,26.3,24.9,00.0,35.1,28.2,21.4,-001.2,0019.38,0008.63,0007.05
2022-10-07 16:58:00,,0838.3,5.00,0.00,26.3,24.9,00.0,35.1,28.2,21.5,-000.9,0019.11,0008.65,0007.07
2022-10-07 16:59:00,,0838.3,5.00,0.00,26.3,24.9,00.0,35.1,28.2,21.6,-001.5,0019.54,0008.69,0007.10
